DLH4EF EDDF-EDDH

Flight info

Callsign DLH4EF
Flight time 0h 45m
Altitude 31000
Route MARUN8M/25C MARUN Y150 TOLGI SAS P605 NOLGO NOLGO3P
Aircraft A320/M-SDE3FGHIRWY/LB1

Departure

Time 2026-05-04 17:57
Airport Frankfurt Main Airport (EDDF)

Arrival

Time 2026-05-04 18:43
Airport Hamburg Helmut Schmidt Airport (EDDH)
Time Latitude Longitude Altitude Speed Heading
2026-05-04 17:43 50.04403 8.56223 356 ft 0 kts 159°
2026-05-04 17:48 50.04404 8.56222 356 ft 1 kts 159°
2026-05-04 17:48 50.04420 8.56213 360 ft 3 kts 159°
2026-05-04 17:49 50.04439 8.56202 357 ft 3 kts 159°
2026-05-04 17:49 50.04456 8.56192 358 ft 3 kts 181°
2026-05-04 17:49 50.04470 8.56199 357 ft 3 kts 238°
2026-05-04 17:49 50.04474 8.56211 361 ft 1 kts 250°
2026-05-04 17:50 50.04469 8.56189 357 ft 3 kts 250°
2026-05-04 17:50 50.04462 8.56159 357 ft 3 kts 250°
2026-05-04 17:50 50.04455 8.56130 360 ft 3 kts 249°
2026-05-04 17:50 50.04451 8.56112 363 ft 0 kts 249°
2026-05-04 17:52 50.04449 8.56103 361 ft 4 kts 249°
2026-05-04 17:52 50.04432 8.56052 359 ft 5 kts 230°
2026-05-04 17:52 50.04394 8.56032 357 ft 6 kts 175°
2026-05-04 17:53 50.04326 8.56064 357 ft 13 kts 159°
2026-05-04 17:53 50.04290 8.56174 357 ft 11 kts 99°
2026-05-04 17:53 50.04236 8.56242 357 ft 10 kts 160°
2026-05-04 17:53 50.04174 8.56277 359 ft 9 kts 160°
2026-05-04 17:54 50.04146 8.56319 361 ft 8 kts 108°
2026-05-04 17:54 50.04157 8.56405 360 ft 10 kts 72°
2026-05-04 17:54 50.04186 8.56524 360 ft 12 kts 69°
2026-05-04 17:54 50.04212 8.56635 361 ft 11 kts 70°
2026-05-04 17:55 50.04248 8.56791 361 ft 19 kts 70°
2026-05-04 17:55 50.04294 8.56985 357 ft 20 kts 69°
2026-05-04 17:55 50.04345 8.57193 358 ft 21 kts 70°
2026-05-04 17:55 50.04380 8.57341 357 ft 13 kts 70°
2026-05-04 17:56 50.04415 8.57487 360 ft 19 kts 70°
2026-05-04 17:56 50.04403 8.57647 359 ft 14 kts 142°
2026-05-04 17:56 50.04315 8.57700 359 ft 13 kts 162°
2026-05-04 17:56 50.04263 8.57650 357 ft 9 kts 249°
2026-05-04 17:57 50.04215 8.57441 361 ft 51 kts 249°
2026-05-04 17:57 50.04005 8.56566 357 ft 119 kts 249°
2026-05-04 17:57 50.03665 8.55104 431 ft 161 kts 251°
2026-05-04 17:57 50.03281 8.53474 1138 ft 161 kts 252°
2026-05-04 17:58 50.02890 8.51830 1799 ft 166 kts 251°
2026-05-04 17:58 50.02311 8.50161 2141 ft 190 kts 225°
2026-05-04 17:58 50.01066 8.49200 2490 ft 212 kts 195°
2026-05-04 17:58 49.99632 8.48594 3320 ft 213 kts 195°
2026-05-04 17:59 49.98234 8.47996 4235 ft 211 kts 195°
2026-05-04 17:59 49.96824 8.47382 5122 ft 211 kts 195°
2026-05-04 17:59 49.93874 8.46060 6396 ft 237 kts 196°
2026-05-04 18:00 49.92278 8.45308 7208 ft 242 kts 200°
2026-05-04 18:00 49.90886 8.43849 8099 ft 246 kts 229°
2026-05-04 18:00 49.90163 8.41440 9000 ft 254 kts 259°
2026-05-04 18:00 49.90361 8.38702 9908 ft 264 kts 290°
2026-05-04 18:01 49.91536 8.36472 10708 ft 277 kts 324°
2026-05-04 18:01 49.93342 8.35135 11153 ft 300 kts 334°
2026-05-04 18:01 49.95344 8.33836 11428 ft 324 kts 334°
2026-05-04 18:02 49.99697 8.31025 12611 ft 346 kts 334°
2026-05-04 18:02 50.01959 8.29670 13383 ft 352 kts 341°
2026-05-04 18:02 50.04390 8.28979 14113 ft 360 kts 354°
2026-05-04 18:02 50.06911 8.29127 14792 ft 366 kts
2026-05-04 18:03 50.09396 8.30135 15465 ft 372 kts 18°
2026-05-04 18:03 50.11853 8.31438 16148 ft 375 kts 18°
2026-05-04 18:03 50.14337 8.32751 16819 ft 379 kts 17°
2026-05-04 18:03 50.16802 8.34255 17471 ft 384 kts 27°
2026-05-04 18:04 50.19156 8.36268 18123 ft 388 kts 28°
2026-05-04 18:04 50.21525 8.38320 18714 ft 391 kts 28°
2026-05-04 18:04 50.26323 8.42502 19866 ft 398 kts 28°
2026-05-04 18:05 50.28750 8.44623 20431 ft 401 kts 28°
2026-05-04 18:05 50.31195 8.46760 20993 ft 405 kts 28°
2026-05-04 18:05 50.33667 8.48917 21541 ft 408 kts 28°
2026-05-04 18:05 50.36156 8.51087 22092 ft 411 kts 28°
2026-05-04 18:06 50.41190 8.55487 23124 ft 418 kts 28°
2026-05-04 18:06 50.43736 8.57723 23623 ft 421 kts 28°
2026-05-04 18:06 50.46303 8.59986 24044 ft 425 kts 28°
2026-05-04 18:07 50.48888 8.62266 24447 ft 428 kts 28°
2026-05-04 18:07 50.51497 8.64557 24873 ft 431 kts 28°
2026-05-04 18:07 50.54123 8.66863 25263 ft 434 kts 28°
2026-05-04 18:07 50.56768 8.69189 25664 ft 437 kts 27°
2026-05-04 18:08 50.59431 8.71538 26041 ft 441 kts 27°
2026-05-04 18:08 50.62122 8.73922 26433 ft 444 kts 27°
2026-05-04 18:08 50.64824 8.76321 26819 ft 448 kts 27°
2026-05-04 18:08 50.67544 8.78741 27199 ft 451 kts 27°
2026-05-04 18:09 50.73039 8.83645 27900 ft 457 kts 27°
2026-05-04 18:09 50.78576 8.88587 27978 ft 457 kts 27°
2026-05-04 18:10 50.81348 8.91064 27980 ft 461 kts 27°
2026-05-04 18:10 50.84178 8.93591 27979 ft 472 kts 27°
2026-05-04 18:10 50.87047 8.96157 27977 ft 475 kts 27°
2026-05-04 18:10 50.89927 8.98740 27977 ft 476 kts 27°
2026-05-04 18:11 50.92809 9.01330 27979 ft 476 kts 27°
2026-05-04 18:11 50.95688 9.03920 27977 ft 476 kts 27°
2026-05-04 18:11 50.98571 9.06518 27985 ft 476 kts 27°
2026-05-04 18:11 51.01454 9.09118 27974 ft 476 kts 27°
2026-05-04 18:12 51.04297 9.11687 27976 ft 477 kts 27°
2026-05-04 18:12 51.07176 9.14291 27975 ft 477 kts 27°
2026-05-04 18:12 51.10059 9.16906 27975 ft 477 kts 27°
2026-05-04 18:12 51.12936 9.19520 27974 ft 477 kts 27°
2026-05-04 18:13 51.15837 9.22159 27975 ft 483 kts 27°
2026-05-04 18:13 51.18756 9.24814 27975 ft 484 kts 27°
2026-05-04 18:13 51.24616 9.30162 28166 ft 486 kts 27°
2026-05-04 18:14 51.27572 9.32791 28524 ft 487 kts 23°
2026-05-04 18:14 51.30703 9.34811 28839 ft 485 kts 13°
2026-05-04 18:14 51.33969 9.36091 29144 ft 484 kts
2026-05-04 18:15 51.40589 9.38369 29770 ft 489 kts
2026-05-04 18:15 51.47272 9.40697 30324 ft 494 kts
2026-05-04 18:15 51.50636 9.41879 30568 ft 495 kts
2026-05-04 18:16 51.54009 9.43068 30812 ft 497 kts
2026-05-04 18:16 51.57389 9.44261 30966 ft 498 kts
2026-05-04 18:16 51.60773 9.45456 30996 ft 498 kts
2026-05-04 18:17 51.70943 9.49045 30985 ft 499 kts
2026-05-04 18:18 51.81074 9.52661 30977 ft 493 kts 11°
2026-05-04 18:18 51.87393 9.56966 30984 ft 495 kts 24°
2026-05-04 18:19 51.96591 9.64602 30981 ft 495 kts 25°
2026-05-04 18:19 52.02710 9.69701 30974 ft 495 kts 24°
2026-05-04 18:20 52.08843 9.74811 30967 ft 495 kts 24°
2026-05-04 18:20 52.14981 9.79925 30983 ft 496 kts 24°
2026-05-04 18:21 52.21116 9.85072 30972 ft 496 kts 24°
2026-05-04 18:21 52.24188 9.87614 30762 ft 492 kts 21°
2026-05-04 18:21 52.27376 9.89476 30131 ft 482 kts 11°
2026-05-04 18:22 52.30600 9.90883 29381 ft 478 kts 11°
2026-05-04 18:22 52.33799 9.92277 28679 ft 473 kts 11°
2026-05-04 18:22 52.36965 9.93654 28018 ft 469 kts 11°
2026-05-04 18:22 52.40107 9.95023 27268 ft 467 kts 11°
2026-05-04 18:23 52.43264 9.96407 26535 ft 472 kts 12°
2026-05-04 18:23 52.46430 9.97802 25872 ft 470 kts 12°
2026-05-04 18:23 52.49572 9.99196 25254 ft 465 kts 12°
2026-05-04 18:23 52.52651 10.00568 24988 ft 453 kts 12°
2026-05-04 18:24 52.55673 10.01917 24627 ft 446 kts 12°
2026-05-04 18:24 52.58655 10.03248 24090 ft 441 kts 12°
2026-05-04 18:24 52.61606 10.04567 23518 ft 437 kts 12°
2026-05-04 18:24 52.64528 10.05878 22903 ft 433 kts 12°
2026-05-04 18:25 52.67420 10.07176 22303 ft 429 kts 12°
2026-05-04 18:25 52.70283 10.08458 21743 ft 425 kts 12°
2026-05-04 18:25 52.73117 10.09728 21196 ft 420 kts 12°
2026-05-04 18:25 52.75926 10.10990 20669 ft 416 kts 12°
2026-05-04 18:26 52.78749 10.11801 20144 ft 408 kts
2026-05-04 18:26 52.81563 10.11924 19616 ft 403 kts 358°
2026-05-04 18:26 52.84349 10.12012 19205 ft 396 kts 358°
2026-05-04 18:26 52.87077 10.12097 18825 ft 389 kts 358°
2026-05-04 18:27 52.89768 10.12183 18398 ft 384 kts 358°
2026-05-04 18:27 52.92426 10.12271 17899 ft 380 kts 358°
2026-05-04 18:27 52.95055 10.12356 17366 ft 377 kts 358°
2026-05-04 18:27 52.97638 10.12438 16845 ft 374 kts 358°
2026-05-04 18:28 53.00268 10.12522 16318 ft 372 kts 358°
2026-05-04 18:28 53.02847 10.12606 15814 ft 370 kts 358°
2026-05-04 18:28 53.05378 10.12689 15327 ft 368 kts 358°
2026-05-04 18:28 53.07927 10.12773 14839 ft 366 kts 358°
2026-05-04 18:29 53.10464 10.12860 14358 ft 364 kts 359°
2026-05-04 18:29 53.12988 10.12946 13884 ft 362 kts 359°
2026-05-04 18:29 53.15494 10.13032 13447 ft 357 kts 359°
2026-05-04 18:29 53.17986 10.13121 13060 ft 351 kts 359°
2026-05-04 18:30 53.22816 10.13585 12123 ft 348 kts 13°
2026-05-04 18:30 53.25100 10.14897 11640 ft 347 kts 19°
2026-05-04 18:30 53.27347 10.16343 11166 ft 345 kts 19°
2026-05-04 18:31 53.29572 10.17786 10700 ft 342 kts 19°
2026-05-04 18:31 53.31786 10.19225 10305 ft 339 kts 19°
2026-05-04 18:31 53.33937 10.20640 10186 ft 326 kts 19°
2026-05-04 18:31 53.35986 10.21996 10002 ft 307 kts 19°
2026-05-04 18:32 53.37944 10.23297 9556 ft 301 kts 19°
2026-05-04 18:32 53.39874 10.24579 9233 ft 297 kts 19°
2026-05-04 18:32 53.41788 10.25848 8875 ft 294 kts 19°
2026-05-04 18:32 53.43687 10.27106 8504 ft 292 kts 19°
2026-05-04 18:33 53.45545 10.28334 8134 ft 290 kts 19°
2026-05-04 18:33 53.47420 10.29572 7752 ft 288 kts 19°
2026-05-04 18:33 53.49327 10.30528 7370 ft 285 kts 11°
2026-05-04 18:33 53.51260 10.31227 6990 ft 283 kts
2026-05-04 18:34 53.53177 10.31889 6667 ft 279 kts
2026-05-04 18:34 53.55064 10.32537 6359 ft 275 kts
2026-05-04 18:34 53.56922 10.33210 6034 ft 271 kts
2026-05-04 18:34 53.58745 10.33897 5695 ft 267 kts
2026-05-04 18:35 53.60540 10.34574 5440 ft 260 kts
2026-05-04 18:35 53.62279 10.35235 5263 ft 251 kts
2026-05-04 18:35 53.63950 10.35878 5108 ft 243 kts
2026-05-04 18:35 53.65605 10.36322 4944 ft 237 kts 354°
2026-05-04 18:36 53.67224 10.35957 4635 ft 233 kts 346°
2026-05-04 18:36 53.68792 10.35422 4376 ft 228 kts 345°
2026-05-04 18:36 53.70335 10.34871 4077 ft 226 kts 345°
2026-05-04 18:36 53.71868 10.34318 3792 ft 223 kts 345°
2026-05-04 18:37 53.73371 10.33769 3644 ft 219 kts 345°
2026-05-04 18:37 53.74816 10.33086 3514 ft 213 kts 328°
2026-05-04 18:37 53.75878 10.31449 3471 ft 207 kts 302°
2026-05-04 18:37 53.76438 10.29259 3362 ft 201 kts 279°
2026-05-04 18:38 53.76398 10.26953 3214 ft 195 kts 256°
2026-05-04 18:38 53.75841 10.24936 3157 ft 187 kts 235°
2026-05-04 18:38 53.75032 10.23291 3129 ft 174 kts 233°
2026-05-04 18:38 53.74285 10.21751 3091 ft 169 kts 233°
2026-05-04 18:39 53.73540 10.20203 3013 ft 170 kts 232°
2026-05-04 18:39 53.72774 10.18652 2870 ft 174 kts 233°
2026-05-04 18:39 53.72266 10.17613 2730 ft 173 kts 233°
2026-05-04 18:39 53.71241 10.15517 2425 ft 173 kts 233°
2026-05-04 18:40 53.70737 10.14480 2258 ft 172 kts 233°
2026-05-04 18:40 53.69978 10.12929 2013 ft 171 kts 232°
2026-05-04 18:40 53.69217 10.11378 1788 ft 171 kts 232°
2026-05-04 18:40 53.68463 10.09853 1567 ft 165 kts 234°
2026-05-04 18:41 53.67740 10.08397 1360 ft 157 kts 234°
2026-05-04 18:41 53.67073 10.07034 1193 ft 144 kts 233°
2026-05-04 18:41 53.66444 10.05753 944 ft 139 kts 234°
2026-05-04 18:41 53.65836 10.04514 765 ft 137 kts 233°
2026-05-04 18:42 53.65227 10.03276 629 ft 137 kts 233°
2026-05-04 18:42 53.64619 10.02021 433 ft 138 kts 232°
2026-05-04 18:42 53.64019 10.00810 237 ft 133 kts 233°
2026-05-04 18:42 53.63435 9.99640 50 ft 125 kts 234°
2026-05-04 18:43 53.62962 9.98666 49 ft 89 kts 230°
2026-05-04 18:43 53.62669 9.98071 49 ft 52 kts 231°
2026-05-04 18:43 53.62506 9.97778 46 ft 16 kts 199°
2026-05-04 18:43 53.62447 9.97824 49 ft 12 kts 139°
2026-05-04 18:44 53.62430 9.97944 50 ft 10 kts 83°
2026-05-04 18:44 53.62442 9.98016 49 ft 10 kts 66°
2026-05-04 18:44 53.62501 9.98165 50 ft 11 kts 51°
2026-05-04 18:44 53.62548 9.98261 50 ft 10 kts 50°
2026-05-04 18:45 53.62591 9.98347 51 ft 10 kts 51°
2026-05-04 18:45 53.62644 9.98460 51 ft 16 kts 51°
2026-05-04 18:45 53.62726 9.98627 51 ft 20 kts 50°
2026-05-04 18:45 53.62821 9.98815 50 ft 22 kts 51°
2026-05-04 18:46 53.62922 9.99022 50 ft 21 kts 50°
2026-05-04 18:46 53.63008 9.99196 50 ft 18 kts 51°
2026-05-04 18:46 53.63073 9.99333 50 ft 15 kts 51°
2026-05-04 18:46 53.63131 9.99474 50 ft 15 kts 56°
2026-05-04 18:47 53.63193 9.99613 50 ft 15 kts 51°
2026-05-04 18:47 53.63260 9.99738 50 ft 14 kts 47°
2026-05-04 18:47 53.63321 9.99853 50 ft 13 kts 50°
2026-05-04 18:47 53.63376 9.99963 51 ft 14 kts 50°
2026-05-04 18:48 53.63433 10.00111 51 ft 15 kts 89°
2026-05-04 18:48 53.63372 10.00227 51 ft 13 kts 163°
2026-05-04 18:48 53.63323 10.00234 51 ft 2 kts 176°
2026-05-04 18:48 53.63312 10.00236 51 ft 0 kts 176°
2026-05-04 18:49 53.63310 10.00236 51 ft 1 kts 176°
2026-05-04 18:49 53.63294 10.00268 51 ft 7 kts 97°
2026-05-04 18:49 53.63293 10.00331 51 ft 1 kts 86°
2026-05-04 18:49 53.63294 10.00349 51 ft 2 kts 87°
2026-05-04 18:50 53.63294 10.00357 51 ft 0 kts 87°
2026-05-04 18:50 53.63294 10.00358 51 ft 0 kts 87°